Change the Weather History Date:

Sunday, May 25, 2014

  Actual Average (KPWC) Record (KPWC)
Temperature  
Mean Temperature 66 °F -  
Max Temperature 80 °F 66 °F 80 °F (2014)
Min Temperature 53 °F 42 °F 33 °F (2003)
Cooling Degree Days 2    
Growing Degree Days 16 (Base 50)    
Moisture  
Dew Point 51 °F    
Average Humidity 51    
Maximum Humidity 88    
Minimum Humidity 28    
Precipitation  
Precipitation 0.00 in - - ()
Sea Level Pressure  
Sea Level Pressure 29.94 in    
Wind  
Wind Speed 7 mph (SSE)    
Max Wind Speed 14 mph    
Max Gust Speed 23 mph    
Visibility 10 miles    
Events      
Averages and records for this station are not official NWS values.
T = Trace of Precipitation, MM = Missing Value Source: NWS Daily Summary

Daily Weather History Graph

Daily Weather History Graph

Search for Another Location

Airport or City:

Trip Planner

Search our weather history database for the weather conditions in past years. The results will help you decide how hot, cold, wet, or windy it might be!

Date:

Astronomy

May. 25, 2014 Rise Set
Actual Time 5:30 AM CDT 8:57 PM CDT
Civil Twilight 4:53 AM CDT 9:34 PM CDT
Nautical Twilight 4:03 AM CDT 10:24 PM CDT
Astronomical Twilight 2:59 AM CDT 11:30 PM CDT
Moon 3:49 AM CDT (5/25) 5:47 PM CDT (5/25)
Length of Visible Light 16h 41m
Length of Day
15h 26m
Waning Crescent, 10% of the Moon is Illuminated
May 25
Waning Crescent
May 28
New
Jun 5
First Quarter
Jun 12
Full
Jun 19
Last Quarter

Hourly Weather History & Observations

Time (CDT) Temp. Dew Point Humidity Pressure Visibility Wind Dir Wind Speed Gust Speed Precip Events Conditions
12:04 AM 66.2 °F 48.2 °F 52% 30.01 in 10.0 mi South 8.1 mph - N/A   Clear
12:12 AM 66.2 °F 48.2 °F 52% 30.01 in 10.0 mi South 8.1 mph - N/A   Clear
1:31 AM 66.2 °F 46.4 °F 49% 30.01 in 10.0 mi South 10.4 mph - N/A   Clear
3:01 AM 64.4 °F 46.4 °F 52% 30.01 in 10.0 mi South 4.6 mph - N/A   Clear
4:10 AM 55.4 °F 48.2 °F 77% 30.00 in 10.0 mi SE 3.5 mph - N/A   Clear
6:27 AM 53.6 °F 48.2 °F 82% 29.99 in 10.0 mi Calm Calm - N/A   Clear
6:44 AM 53.6 °F 50.0 °F 88% 29.99 in 10.0 mi Calm Calm - N/A   Clear
7:05 AM 57.2 °F 48.2 °F 72% 29.99 in 10.0 mi SSE 4.6 mph - N/A   Clear
7:38 AM 64.4 °F 46.4 °F 52% 29.99 in 10.0 mi Calm Calm - N/A   Clear
7:40 AM 64.4 °F 46.4 °F 52% 29.99 in 10.0 mi South 3.5 mph - N/A   Clear
9:00 AM 69.8 °F 46.4 °F 43% 29.98 in 10.0 mi SW 4.6 mph - N/A   Clear
10:38 AM 77.0 °F 48.2 °F 36% 29.98 in 10.0 mi South 9.2 mph - N/A   Clear
10:46 AM 77.0 °F 48.2 °F 36% 29.98 in 10.0 mi South 9.2 mph - N/A   Clear
12:09 PM 80.6 °F 48.2 °F 32% 29.96 in 10.0 mi South 10.4 mph - N/A   Clear
12:29 PM 80.6 °F 48.2 °F 32% 29.95 in 10.0 mi SSE 10.4 mph 18.4 mph N/A   Clear
12:35 PM 80.6 °F 48.2 °F 32% 29.95 in 10.0 mi South 11.5 mph 18.4 mph N/A   Clear
12:50 PM 80.6 °F 48.2 °F 32% 29.95 in 10.0 mi SSE 11.5 mph 20.7 mph N/A   Clear
1:26 PM 80.6 °F 46.4 °F 30% 29.94 in 10.0 mi South 11.5 mph 20.7 mph N/A   Clear
2:24 PM 80.6 °F 44.6 °F 28% 29.92 in 10.0 mi South 10.4 mph 16.1 mph N/A   Clear
2:48 PM 80.6 °F 46.4 °F 30% 29.91 in 10.0 mi SSE 13.8 mph 20.7 mph N/A   Clear
3:05 PM 80.6 °F 44.6 °F 28% 29.91 in 10.0 mi SSE 12.7 mph 23.0 mph N/A   Clear
3:16 PM 80.6 °F 44.6 °F 28% 29.91 in 10.0 mi SSE 11.5 mph 20.7 mph N/A   Clear
3:59 PM 78.8 °F 50.0 °F 36% 29.90 in 10.0 mi South 12.7 mph 20.7 mph N/A   Clear
6:21 PM 78.8 °F 57.2 °F 47% 29.89 in 10.0 mi South 6.9 mph 16.1 mph N/A   Scattered Clouds
6:46 PM 77.0 °F 57.2 °F 50% 29.88 in 10.0 mi SSE 11.5 mph 18.4 mph N/A   Scattered Clouds
7:11 PM 77.0 °F 57.2 °F 50% 29.89 in 10.0 mi South 9.2 mph - N/A   Scattered Clouds
7:21 PM 75.2 °F 57.2 °F 53% 29.89 in 10.0 mi SSE 10.4 mph - N/A   Clear
7:22 PM 75.2 °F 57.2 °F 53% 29.89 in 10.0 mi SSE 11.5 mph - N/A   Clear
8:06 PM 73.4 °F 57.2 °F 57% 29.89 in 10.0 mi SSE 8.1 mph - N/A   Scattered Clouds
9:12 PM 68.0 °F 57.2 °F 68% 29.89 in 10.0 mi SSE 5.8 mph - N/A   Clear
9:21 PM 66.2 °F 59.0 °F 78% 29.88 in 10.0 mi SE 5.8 mph - N/A   Clear
11:00 PM 66.2 °F 60.8 °F 83% 29.88 in 10.0 mi SSE 4.6 mph - N/A   Scattered Clouds
11:57 PM 68.0 °F 60.8 °F 78% 29.89 in 10.0 mi South 5.8 mph - N/A   Scattered Clouds
11:58 PM 68.0 °F 60.8 °F 78% 29.89 in 10.0 mi South 5.8 mph - N/A   Scattered Clouds